When you browse on this site, cookies collect data to enhance your experience and personalize the content and advertising you see.
Visit our Privacy Policy to learn more. By continuing to use the site, you agree to this use of cookies and data.
  • în România
  • Lista ţărilor
  • Pe 7 zile
  • Temperatura apei
  • Hartă satelitară
  • Meteo pe hartă
  • Widget-uri
  • user-avatar
    Intrare

    Meteo pe oră la Aberdeen

    Astăzi, 20 Ianuarie, Duminică

    Timp Temperatura Precipitaţii Vânt Presiune Umiditate
    00:00 +2°C° 0 mm 1 m/s 751 mmHg 91%
    01:00 +2°C° 0 mm 1 m/s 751 mmHg 91%
    02:00 +2°C° 0 mm 1 m/s 751 mmHg 90%
    03:00 +2°C° 0 mm 1 m/s 751 mmHg 90%
    04:00 +2°C° 0 mm 1 m/s 751 mmHg 90%
    05:00 -1°C° 0 mm 2 m/s 751 mmHg 90%
    06:00 -1°C° 0 mm 2 m/s 752 mmHg 88%
    07:00 -1°C° 0 mm 2 m/s 752 mmHg 86%
    08:00 -1°C° 0 mm 2 m/s 753 mmHg 85%
    09:00 -1°C° 0 mm 3 m/s 753 mmHg 84%
    10:00 0°C° 0.1 mm 3 m/s 753 mmHg 81%
    11:00 +1°C° 0.1 mm 3 m/s 754 mmHg 78%
    12:00 +3°C° 0 mm 4 m/s 755 mmHg 73%
    13:00 +3°C° 0 mm 4 m/s 755 mmHg 74%
    14:00 +3°C° 0 mm 4 m/s 755 mmHg 75%
    15:00 +3°C° 0 mm 4 m/s 756 mmHg 76%
    16:00 +2°C° 0 mm 3 m/s 756 mmHg 77%
    17:00 +1°C° 0 mm 3 m/s 757 mmHg 78%
    18:00 0°C° 0 mm 3 m/s 758 mmHg 79%
    19:00 0°C° 0 mm 3 m/s 758 mmHg 79%
    20:00 0°C° 0 mm 3 m/s 759 mmHg 78%
    21:00 -1°C° 0 mm 3 m/s 759 mmHg 78%
    22:00 -1°C° 0 mm 3 m/s 759 mmHg 77%
    23:00 -1°C° 0 mm 3 m/s 759 mmHg 77%

    Mâine, 21 Ianuarie, Luni

    Timp Temperatura Precipitaţii Vânt Presiune Umiditate
    00:00 -1°C° 0 mm 3 m/s 759 mmHg 77%
    01:00 -1°C° 0 mm 3 m/s 759 mmHg 78%
    02:00 -1°C° 0 mm 3 m/s 759 mmHg 79%
    03:00 -1°C° 0 mm 3 m/s 759 mmHg 80%
    04:00 -1°C° 0 mm 3 m/s 758 mmHg 83%
    05:00 -1°C° 0 mm 3 m/s 757 mmHg 85%
    06:00 -1°C° 0 mm 3 m/s 757 mmHg 87%
    07:00 -1°C° 0 mm 3 m/s 756 mmHg 87%
    08:00 -2°C° 0 mm 4 m/s 756 mmHg 88%
    09:00 -1°C° 0 mm 4 m/s 755 mmHg 89%
    10:00 -1°C° 0 mm 5 m/s 754 mmHg 85%
    11:00 -1°C° 0 mm 6 m/s 753 mmHg 81%
    12:00 +1°C° 0 mm 6 m/s 752 mmHg 78%
    13:00 +1°C° 0 mm 6 m/s 750 mmHg 77%
    14:00 +1°C° 0 mm 6 m/s 749 mmHg 77%
    15:00 +2°C° 0 mm 6 m/s 747 mmHg 77%
    16:00 0°C° 0.4 mm 7 m/s 746 mmHg 78%
    17:00 0°C° 0.4 mm 7 m/s 745 mmHg 80%
    18:00 0°C° 0.4 mm 7 m/s 743 mmHg 81%
    19:00 +1°C° 0.7 mm 6 m/s 742 mmHg 84%
    20:00 +1°C° 0.7 mm 6 m/s 741 mmHg 87%
    21:00 +1°C° 0.7 mm 5 m/s 740 mmHg 89%
    22:00 0°C° 0.1 mm 5 m/s 740 mmHg 87%
    23:00 0°C° 0.1 mm 4 m/s 740 mmHg 84%

    Poimâine, 22 Ianuarie, Marţi

    Timp Temperatura Precipitaţii Vânt Presiune Umiditate
    00:00 -1°C° 0.1 mm 4 m/s 739 mmHg 81%
    01:00 -1°C° 0 mm 4 m/s 739 mmHg 81%
    02:00 -1°C° 0 mm 4 m/s 738 mmHg 81%
    03:00 -2°C° 0 mm 5 m/s 738 mmHg 81%
    04:00 -2°C° 0 mm 4 m/s 738 mmHg 81%
    05:00 -2°C° 0 mm 4 m/s 738 mmHg 81%
    06:00 -2°C° 0 mm 4 m/s 738 mmHg 81%
    07:00 -3°C° 0 mm 4 m/s 738 mmHg 80%
    08:00 -3°C° 0 mm 4 m/s 738 mmHg 80%
    09:00 -3°C° 0 mm 4 m/s 738 mmHg 80%
    10:00 -2°C° 0 mm 5 m/s 739 mmHg 77%
    11:00 -1°C° 0 mm 5 m/s 739 mmHg 73%
    12:00 0°C° 0 mm 5 m/s 739 mmHg 70%
    13:00 0°C° 0 mm 5 m/s 739 mmHg 70%
    14:00 -1°C° 0 mm 5 m/s 739 mmHg 70%
    15:00 -1°C° 0 mm 5 m/s 740 mmHg 71%
    16:00 -2°C° 0 mm 4 m/s 740 mmHg 74%
    17:00 -2°C° 0 mm 4 m/s 740 mmHg 77%
    18:00 -3°C° 0 mm 4 m/s 740 mmHg 80%
    19:00 -3°C° 0 mm 4 m/s 741 mmHg 80%
    20:00 -3°C° 0 mm 4 m/s 741 mmHg 80%
    21:00 -2°C° 0 mm 3 m/s 741 mmHg 80%
    22:00 -2°C° 0 mm 3 m/s 741 mmHg 79%
    23:00 -2°C° 0 mm 3 m/s 742 mmHg 79%

    23 Ianuarie, Miercuri

    Timp Temperatura Precipitaţii Vânt Presiune Umiditate
    00:00 -4°C° 0 mm 3 m/s 742 mmHg 78%
    01:00 -3°C° 0 mm 4 m/s 742 mmHg 79%
    02:00 -3°C° 0 mm 4 m/s 742 mmHg 80%
    03:00 -3°C° 0 mm 4 m/s 743 mmHg 81%
    04:00 -2°C° 0 mm 4 m/s 743 mmHg 80%
    05:00 -2°C° 0 mm 4 m/s 743 mmHg 79%
    06:00 -2°C° 0 mm 4 m/s 743 mmHg 79%
    07:00 -2°C° 0 mm 4 m/s 744 mmHg 79%
    08:00 -2°C° 0 mm 4 m/s 744 mmHg 80%
    09:00 -3°C° 0 mm 4 m/s 745 mmHg 80%
    10:00 -2°C° 0 mm 4 m/s 745 mmHg 77%
    11:00 -1°C° 0 mm 4 m/s 746 mmHg 74%
    12:00 0°C° 0 mm 4 m/s 746 mmHg 71%
    13:00 0°C° 0 mm 4 m/s 746 mmHg 73%
    14:00 0°C° 0 mm 4 m/s 746 mmHg 74%
    15:00 0°C° 0 mm 4 m/s 747 mmHg 76%
    16:00 0°C° 0 mm 4 m/s 747 mmHg 79%
    17:00 -1°C° 0 mm 4 m/s 747 mmHg 82%
    18:00 -1°C° 0 mm 4 m/s 747 mmHg 84%
    19:00 -1°C° 0.1 mm 4 m/s 747 mmHg 86%
    20:00 -1°C° 0.1 mm 4 m/s 748 mmHg 87%
    21:00 -1°C° 0.1 mm 4 m/s 748 mmHg 88%
    22:00 0°C° 0.1 mm 4 m/s 748 mmHg 90%
    23:00 0°C° 0.1 mm 4 m/s 748 mmHg 91%

    24 Ianuarie, Joi

    Timp Temperatura Precipitaţii Vânt Presiune Umiditate
    00:00 +1°C° 0.1 mm 3 m/s 747 mmHg 92%
    01:00 +1°C° 0.3 mm 3 m/s 747 mmHg 93%
    02:00 +1°C° 0.3 mm 3 m/s 747 mmHg 93%
    03:00 +1°C° 0.3 mm 3 m/s 747 mmHg 93%
    04:00 +2°C° 0.1 mm 2 m/s 747 mmHg 93%
    05:00 +2°C° 0.1 mm 2 m/s 747 mmHg 93%
    06:00 +3°C° 0.1 mm 1 m/s 746 mmHg 93%
    07:00 +3°C° 0.2 mm 1 m/s 747 mmHg 93%
    08:00 +3°C° 0.2 mm 1 m/s 747 mmHg 93%
    09:00 +4°C° 0.2 mm 1 m/s 747 mmHg 93%
    10:00 +4°C° 0.2 mm 1 m/s 747 mmHg 93%
    11:00 +5°C° 0.2 mm 1 m/s 747 mmHg 93%
    12:00 +5°C° 0.2 mm 1 m/s 747 mmHg 93%
    13:00 +4°C° 0.2 mm 2 m/s 747 mmHg 94%
    14:00 +4°C° 0.2 mm 2 m/s 747 mmHg 95%
    15:00 +5°C° 0.2 mm 2 m/s 747 mmHg 95%
    16:00 +4°C° 0.2 mm 3 m/s 747 mmHg 95%
    17:00 +4°C° 0.2 mm 3 m/s 747 mmHg 94%
    18:00 +4°C° 0.2 mm 3 m/s 747 mmHg 94%
    19:00 +5°C° 0.1 mm 4 m/s 747 mmHg 93%
    20:00 +5°C° 0.1 mm 4 m/s 748 mmHg 93%
    21:00 +5°C° 0.1 mm 5 m/s 748 mmHg 92%
    22:00 +5°C° 0 mm 5 m/s 748 mmHg 92%
    23:00 +5°C° 0 mm 5 m/s 748 mmHg 92%

    25 Ianuarie, Vineri

    Timp Temperatura Precipitaţii Vânt Presiune Umiditate
    00:00 +5°C° 0 mm 5 m/s 748 mmHg 91%
    01:00 +5°C° 0 mm 5 m/s 748 mmHg 92%
    02:00 +5°C° 0 mm 5 m/s 748 mmHg 92%
    03:00 +5°C° 0 mm 4 m/s 748 mmHg 93%
    04:00 +5°C° 0 mm 5 m/s 748 mmHg 93%
    05:00 +5°C° 0 mm 5 m/s 748 mmHg 93%
    06:00 +5°C° 0 mm 5 m/s 748 mmHg 93%
    07:00 +5°C° 0 mm 6 m/s 748 mmHg 92%
    08:00 +5°C° 0 mm 7 m/s 747 mmHg 91%
    09:00 +6°C° 0 mm 8 m/s 747 mmHg 90%
    10:00 +6°C° 0 mm 8 m/s 747 mmHg 89%
    11:00 +7°C° 0 mm 8 m/s 747 mmHg 88%
    12:00 +7°C° 0 mm 8 m/s 746 mmHg 87%
    13:00 +8°C° 0 mm 7 m/s 746 mmHg 83%
    14:00 +7°C° 0 mm 6 m/s 746 mmHg 80%
    15:00 +6°C° 0 mm 5 m/s 746 mmHg 76%
    16:00 +5°C° 0 mm 5 m/s 746 mmHg 78%
    17:00 +3°C° 0 mm 5 m/s 746 mmHg 80%
    18:00 +2°C° 0 mm 5 m/s 746 mmHg 83%
    19:00 +2°C° 0 mm 5 m/s 746 mmHg 83%
    20:00 +2°C° 0 mm 5 m/s 746 mmHg 84%
    21:00 +2°C° 0 mm 5 m/s 745 mmHg 84%
    22:00 +1°C° 0 mm 5 m/s 745 mmHg 85%
    23:00 +1°C° 0 mm 5 m/s 744 mmHg 86%
    Arată mai mult